Time,TemperatureF,DewpointF,PressureIn,WindDirection,WindDirectionDegrees,WindSpeedMPH,WindSpeedGustMPH,Humidity,HourlyPrecipIn,Conditions,Clouds,dailyrainin,SoftwareType,DateUTC
2013-06-07 00:02:00,60.8,55.9,29.91,NW,318,0.0,0.0,84,0.00,,SKC,0.00,VWS V12.07,2013-06-07 05:02:00,
2013-06-07 00:05:00,60.8,55.9,29.91,NNW,328,0.0,2.0,84,0.00,,SKC,0.00,VWS V12.07,2013-06-07 05:05:00,
2013-06-07 00:12:00,60.7,55.8,29.91,NW,311,1.0,2.0,84,0.00,,SKC,0.00,VWS V12.07,2013-06-07 05:12:00,
2013-06-07 00:19:00,60.8,55.9,29.91,NNW,328,2.0,3.0,84,0.00,,SKC,0.00,VWS V12.07,2013-06-07 05:19:00,
2013-06-07 00:25:00,60.8,55.9,29.91,West,280,0.0,3.0,84,0.00,,SKC,0.00,VWS V12.07,2013-06-07 05:25:00,
2013-06-07 00:32:00,60.7,55.8,29.91,NNE,13,0.0,1.0,84,0.00,,SKC,0.00,VWS V12.07,2013-06-07 05:32:00,
2013-06-07 00:39:00,60.6,55.8,29.92,NNW,342,2.0,3.0,84,0.00,,SKC,0.00,VWS V12.07,2013-06-07 05:39:00,
2013-06-07 00:45:00,60.6,55.8,29.91,NNE,17,0.0,3.0,84,0.00,,SKC,0.00,VWS V12.07,2013-06-07 05:45:00,
2013-06-07 00:52:00,60.5,55.7,29.91,NNW,335,1.0,4.0,84,0.00,,SKC,0.00,VWS V12.07,2013-06-07 05:52:00,
2013-06-07 00:59:00,60.4,55.5,29.92,NNE,23,0.0,4.0,84,0.00,,SKC,0.00,VWS V12.07,2013-06-07 05:59:00,
2013-06-07 01:05:00,60.1,55.6,29.92,NNW,328,0.0,0.0,85,0.00,,SKC,0.00,VWS V12.07,2013-06-07 06:05:00,
2013-06-07 01:12:00,59.9,55.7,29.92,NE,39,0.0,3.0,86,0.00,,SKC,0.00,VWS V12.07,2013-06-07 06:12:00,
2013-06-07 01:19:00,59.5,55.3,29.92,NNE,30,1.0,3.0,86,0.00,,SKC,0.00,VWS V12.07,2013-06-07 06:19:00,
2013-06-07 01:25:00,59.4,55.5,29.92,North,360,0.0,3.0,87,0.00,,SKC,0.00,VWS V12.07,2013-06-07 06:25:00,
2013-06-07 01:32:00,59.1,55.2,29.92,North,1,0.0,0.0,87,0.00,,SKC,0.00,VWS V12.07,2013-06-07 06:32:00,
2013-06-07 01:38:00,58.7,55.2,29.92,North,1,0.0,0.0,88,0.00,,SKC,0.00,VWS V12.07,2013-06-07 06:38:00,
2013-06-07 01:44:00,58.4,55.2,29.92,North,360,0.0,0.0,89,0.00,,SKC,0.00,VWS V12.07,2013-06-07 06:44:00,
2013-06-07 01:52:00,58.2,55.3,29.92,North,360,0.0,0.0,90,0.00,,SKC,0.00,VWS V12.07,2013-06-07 06:52:00,
2013-06-07 01:58:00,58.0,55.1,29.92,North,358,0.0,0.0,90,0.00,,SKC,0.00,VWS V12.07,2013-06-07 06:58:00,
2013-06-07 02:04:00,57.9,55.3,29.92,North,1,0.0,2.0,91,0.00,,SKC,0.00,VWS V12.07,2013-06-07 07:04:00,
2013-06-07 02:11:00,57.8,55.2,29.92,NW,319,0.0,2.0,91,0.00,,SKC,0.00,VWS V12.07,2013-06-07 07:11:00,
2013-06-07 02:18:00,57.8,54.9,29.92,ENE,58,0.0,2.0,90,0.00,,SKC,0.00,VWS V12.07,2013-06-07 07:18:00,
2013-06-07 02:24:00,57.7,54.8,29.92,NW,319,0.0,2.0,90,0.00,,SKC,0.00,VWS V12.07,2013-06-07 07:24:00,
2013-06-07 02:31:00,57.6,55.0,29.92,North,352,0.0,0.0,91,0.00,,SKC,0.00,VWS V12.07,2013-06-07 07:31:00,
2013-06-07 02:38:00,57.4,54.8,29.92,North,356,0.0,1.0,91,0.00,,SKC,0.00,VWS V12.07,2013-06-07 07:38:00,
2013-06-07 02:44:00,57.4,54.8,29.92,North,353,0.0,1.0,91,0.00,,SKC,0.00,VWS V12.07,2013-06-07 07:44:00,
2013-06-07 02:50:00,57.2,54.6,29.92,North,353,0.0,1.0,91,0.00,,SKC,0.00,VWS V12.07,2013-06-07 07:50:00,
2013-06-07 02:56:00,57.1,54.8,29.92,North,8,0.0,1.0,92,0.00,,SKC,0.00,VWS V12.07,2013-06-07 07:56:00,
2013-06-07 03:03:00,57.1,54.5,29.92,NNW,345,0.0,0.0,91,0.00,,SKC,0.00,VWS V12.07,2013-06-07 08:03:00,
2013-06-07 03:10:00,57.0,54.4,29.92,NNW,342,0.0,1.0,91,0.00,,SKC,0.00,VWS V12.07,2013-06-07 08:10:00,
2013-06-07 03:16:00,56.8,54.2,29.92,North,352,0.0,1.0,91,0.00,,SKC,0.00,VWS V12.07,2013-06-07 08:16:00,
2013-06-07 03:23:00,56.6,54.3,29.92,NW,321,0.0,2.0,92,0.00,,SKC,0.00,VWS V12.07,2013-06-07 08:23:00,
2013-06-07 03:29:00,56.6,54.3,29.92,NW,325,0.0,2.0,92,0.00,,SKC,0.00,VWS V12.07,2013-06-07 08:29:00,
2013-06-07 03:37:00,56.6,54.3,29.92,NW,319,0.0,3.0,92,0.00,,SKC,0.00,VWS V12.07,2013-06-07 08:37:00,
2013-06-07 03:44:00,56.6,54.3,29.92,North,1,0.0,3.0,92,0.00,,SKC,0.00,VWS V12.07,2013-06-07 08:44:00,
2013-06-07 03:49:00,56.5,54.2,29.92,NW,321,0.0,3.0,92,0.00,,SKC,0.00,VWS V12.07,2013-06-07 08:49:00,
2013-06-07 03:57:00,56.4,54.1,29.92,NNW,347,1.0,3.0,92,0.00,,SKC,0.00,VWS V12.07,2013-06-07 08:57:00,
2013-06-07 04:03:00,56.5,54.2,29.92,NNW,334,0.0,1.0,92,0.00,,SKC,0.00,VWS V12.07,2013-06-07 09:03:00,
2013-06-07 04:09:00,56.4,54.1,29.92,NNW,341,0.0,2.0,92,0.00,,SKC,0.00,VWS V12.07,2013-06-07 09:09:00,
2013-06-07 04:17:00,56.4,54.1,29.92,NNE,33,1.0,5.0,92,0.00,,SKC,0.00,VWS V12.07,2013-06-07 09:17:00,
2013-06-07 04:23:00,56.5,53.9,29.92,NNE,20,2.0,5.0,91,0.00,,SKC,0.00,VWS V12.07,2013-06-07 09:23:00,
2013-06-07 04:29:00,56.4,54.1,29.92,North,349,0.0,5.0,92,0.00,,SKC,0.00,VWS V12.07,2013-06-07 09:29:00,
2013-06-07 04:36:00,56.3,54.0,29.92,NNW,338,0.0,2.0,92,0.00,,SKC,0.00,VWS V12.07,2013-06-07 09:36:00,
2013-06-07 04:43:00,56.2,53.9,29.92,NW,321,1.0,2.0,92,0.00,,SKC,0.00,VWS V12.07,2013-06-07 09:43:00,
2013-06-07 04:49:00,56.0,53.7,29.92,East,101,0.0,2.0,92,0.00,,SKC,0.00,VWS V12.07,2013-06-07 09:49:00,
2013-06-07 04:59:00,55.8,53.8,29.92,NNW,343,1.0,3.0,93,0.00,,SKC,0.00,VWS V12.07,2013-06-07 09:59:00,
2013-06-07 05:06:00,55.7,53.7,29.92,NW,311,0.0,4.0,93,0.00,,SKC,0.00,VWS V12.07,2013-06-07 10:06:00,
2013-06-07 05:14:00,55.5,53.5,29.92,NE,41,0.0,4.0,93,0.00,,SKC,0.00,VWS V12.07,2013-06-07 10:14:00,
2013-06-07 05:19:00,55.3,53.3,29.93,NE,41,0.0,4.0,93,0.00,,SKC,0.00,VWS V12.07,2013-06-07 10:19:00,
2013-06-07 05:26:00,55.2,53.5,29.93,NW,319,0.0,4.0,94,0.00,,SKC,0.00,VWS V12.07,2013-06-07 10:26:00,
2013-06-07 05:34:00,55.1,53.4,29.93,North,4,2.0,2.0,94,0.00,,SKC,0.00,VWS V12.07,2013-06-07 10:34:00,
2013-06-07 05:39:00,55.0,53.3,29.93,North,1,0.0,3.0,94,0.00,,SKC,0.00,VWS V12.07,2013-06-07 10:39:00,
2013-06-07 05:47:00,54.8,53.1,29.93,NNW,334,0.0,3.0,94,0.00,,SKC,0.00,VWS V12.07,2013-06-07 10:47:00,
2013-06-07 05:53:00,54.6,53.2,29.93,NW,319,0.0,3.0,95,0.00,,SKC,0.00,VWS V12.07,2013-06-07 10:53:00,
2013-06-07 05:59:00,54.5,53.1,29.94,NNW,345,0.0,3.0,95,0.00,,SKC,0.00,VWS V12.07,2013-06-07 10:59:00,
2013-06-07 06:07:00,54.3,52.9,29.94,North,357,0.0,0.0,95,0.00,,SKC,0.00,VWS V12.07,2013-06-07 11:07:00,
2013-06-07 06:13:00,54.5,53.1,29.94,SE,134,0.0,3.0,95,0.00,,SKC,0.00,VWS V12.07,2013-06-07 11:13:00,
2013-06-07 06:19:00,54.7,53.6,29.94,NNW,328,0.0,3.0,96,0.00,,SKC,0.00,VWS V12.07,2013-06-07 11:19:00,
2013-06-07 06:27:00,55.0,53.6,29.94,North,353,0.0,3.0,95,0.00,,SKC,0.00,VWS V12.07,2013-06-07 11:27:00,
2013-06-07 06:34:00,55.4,54.0,29.94,NW,318,1.0,2.0,95,0.00,,SKC,0.00,VWS V12.07,2013-06-07 11:34:00,
2013-06-07 06:39:00,55.6,53.9,29.94,NNW,330,2.0,3.0,94,0.00,,SKC,0.00,VWS V12.07,2013-06-07 11:39:00,
2013-06-07 06:46:00,55.7,54.0,29.94,WNW,292,0.0,4.0,94,0.00,,SKC,0.00,VWS V12.07,2013-06-07 11:46:00,
2013-06-07 06:54:00,55.9,54.2,29.95,NW,305,1.0,4.0,94,0.00,,SKC,0.00,VWS V12.07,2013-06-07 11:54:00,
2013-06-07 07:00:00,56.1,54.4,29.95,NNW,330,1.0,4.0,94,0.00,,SKC,0.00,VWS V12.07,2013-06-07 12:00:00,
2013-06-07 07:06:00,56.3,54.6,29.95,NNW,333,0.0,2.0,94,0.00,,SKC,0.00,VWS V12.07,2013-06-07 12:06:00,
2013-06-07 07:14:00,57.0,55.3,29.95,NNW,336,0.0,3.0,94,0.00,,SKC,0.00,VWS V12.07,2013-06-07 12:14:00,
2013-06-07 07:19:00,57.8,56.1,29.95,NNW,328,1.0,3.0,94,0.00,,SKC,0.00,VWS V12.07,2013-06-07 12:19:00,
2013-06-07 07:26:00,58.7,56.7,29.95,North,9,1.0,3.0,93,0.00,,SKC,0.00,VWS V12.07,2013-06-07 12:26:00,
2013-06-07 07:33:00,59.1,56.8,29.95,NNW,333,1.0,2.0,92,0.00,,SKC,0.00,VWS V12.07,2013-06-07 12:33:00,
2013-06-07 07:40:00,59.1,56.8,29.95,NNE,20,0.0,4.0,92,0.00,,SKC,0.00,VWS V12.07,2013-06-07 12:40:00,
2013-06-07 07:47:00,59.3,57.0,29.95,WNW,301,2.0,5.0,92,0.00,,SKC,0.00,VWS V12.07,2013-06-07 12:47:00,
2013-06-07 07:53:00,59.9,57.6,29.95,WNW,302,0.0,5.0,92,0.00,,SKC,0.00,VWS V12.07,2013-06-07 12:53:00,
2013-06-07 08:00:00,60.7,58.1,29.95,NNE,14,1.0,5.0,91,0.00,,SKC,0.00,VWS V12.07,2013-06-07 13:00:00,
2013-06-07 08:07:00,61.0,58.0,29.95,NW,305,2.0,6.0,90,0.00,,SKC,0.00,VWS V12.07,2013-06-07 13:07:00,
2013-06-07 08:15:00,61.6,58.3,29.95,NW,319,1.0,6.0,89,0.00,,SKC,0.00,VWS V12.07,2013-06-07 13:15:00,
2013-06-07 08:21:00,61.9,58.3,29.95,North,353,2.0,6.0,88,0.00,,SKC,0.00,VWS V12.07,2013-06-07 13:21:00,
2013-06-07 08:28:00,62.5,58.9,29.95,NW,304,1.0,6.0,88,0.00,,SKC,0.00,VWS V12.07,2013-06-07 13:28:00,
2013-06-07 08:34:00,62.7,58.5,29.95,NE,54,2.0,6.0,86,0.00,,SKC,0.00,VWS V12.07,2013-06-07 13:34:00,
2013-06-07 08:42:00,63.2,58.6,29.95,North,352,4.0,6.0,85,0.00,,SKC,0.00,VWS V12.07,2013-06-07 13:42:00,
2013-06-07 08:49:00,63.6,59.0,29.95,West,280,2.0,6.0,85,0.00,,SKC,0.00,VWS V12.07,2013-06-07 13:49:00,
2013-06-07 08:55:00,64.1,59.5,29.95,NE,39,2.0,7.0,85,0.00,,SKC,0.00,VWS V12.07,2013-06-07 13:55:00,
2013-06-07 09:02:00,64.2,59.3,29.95,NNE,23,3.0,3.0,84,0.00,,SKC,0.00,VWS V12.07,2013-06-07 14:02:00,
2013-06-07 09:08:00,64.5,58.9,29.95,North,1,3.0,6.0,82,0.00,,SKC,0.00,VWS V12.07,2013-06-07 14:08:00,
2013-06-07 09:15:00,64.9,59.6,29.95,NW,309,2.0,8.0,83,0.00,,SKC,0.00,VWS V12.07,2013-06-07 14:15:00,
2013-06-07 09:22:00,65.4,59.1,29.95,NNE,32,4.0,8.0,80,0.00,,SKC,0.00,VWS V12.07,2013-06-07 14:22:00,
2013-06-07 09:30:00,65.2,58.5,29.95,North,349,1.0,8.0,79,0.00,,SKC,0.00,VWS V12.07,2013-06-07 14:30:00,
2013-06-07 09:37:00,65.8,59.1,29.95,WNW,291,2.0,6.0,79,0.00,,SKC,0.00,VWS V12.07,2013-06-07 14:37:00,
2013-06-07 09:44:00,66.2,58.4,29.95,NW,316,4.0,6.0,76,0.00,,SKC,0.00,VWS V12.07,2013-06-07 14:44:00,
2013-06-07 09:51:00,66.0,58.2,29.95,WNW,288,1.0,6.0,76,0.00,,SKC,0.00,VWS V12.07,2013-06-07 14:51:00,
2013-06-07 09:59:00,66.0,58.2,29.95,NW,305,4.0,7.0,76,0.00,,SKC,0.00,VWS V12.07,2013-06-07 14:59:00,
2013-06-07 10:04:00,66.5,58.7,29.95,WSW,256,1.0,7.0,76,0.00,,SKC,0.00,VWS V12.07,2013-06-07 15:04:00,
2013-06-07 10:11:00,66.8,59.4,29.95,NW,315,4.0,7.0,77,0.00,,SKC,0.00,VWS V12.07,2013-06-07 15:11:00,
2013-06-07 10:19:00,67.5,58.9,29.95,SSE,167,3.0,9.0,74,0.00,,SKC,0.00,VWS V12.07,2013-06-07 15:19:00,
2013-06-07 10:25:00,67.8,58.8,29.95,North,349,5.0,9.0,73,0.00,,SKC,0.00,VWS V12.07,2013-06-07 15:25:00,
2013-06-07 10:32:00,67.6,58.7,29.95,NNE,12,2.0,6.0,73,0.00,,SKC,0.00,VWS V12.07,2013-06-07 15:32:00,
2013-06-07 10:39:00,67.2,58.3,29.95,NNW,330,1.0,6.0,73,0.00,,SKC,0.00,VWS V12.07,2013-06-07 15:39:00,
2013-06-07 10:49:00,68.7,58.9,29.95,NNE,24,3.0,10.0,71,0.00,,SKC,0.00,VWS V12.07,2013-06-07 15:49:00,
2013-06-07 10:55:00,69.1,59.3,29.95,NW,314,4.0,10.0,71,0.00,,SKC,0.00,VWS V12.07,2013-06-07 15:55:00,
2013-06-07 11:02:00,67.5,58.2,29.95,NW,319,3.0,5.0,72,0.00,,SKC,0.00,VWS V12.07,2013-06-07 16:02:00,
2013-06-07 11:09:00,66.9,57.6,29.95,ENE,63,4.0,5.0,72,0.00,,SKC,0.00,VWS V12.07,2013-06-07 16:09:00,
2013-06-07 11:14:00,67.7,58.4,29.95,NNE,15,4.0,10.0,72,0.00,,SKC,0.00,VWS V12.07,2013-06-07 16:14:00,
2013-06-07 11:20:00,68.5,58.7,29.95,North,357,5.0,10.0,71,0.00,,SKC,0.00,VWS V12.07,2013-06-07 16:20:00,
2013-06-07 11:29:00,68.2,58.0,29.95,NW,307,2.0,10.0,70,0.00,,SKC,0.00,VWS V12.07,2013-06-07 16:29:00,
2013-06-07 11:35:00,68.7,59.7,29.95,WNW,291,4.0,8.0,73,0.00,,SKC,0.00,VWS V12.07,2013-06-07 16:35:00,
2013-06-07 11:44:00,67.7,59.5,29.95,WNW,283,7.0,9.0,75,0.00,,SKC,0.00,VWS V12.07,2013-06-07 16:44:00,
2013-06-07 11:49:00,68.3,59.7,29.95,WNW,285,3.0,10.0,74,0.00,,SKC,0.00,VWS V12.07,2013-06-07 16:49:00,
2013-06-07 11:56:00,69.2,60.6,29.95,WNW,296,4.0,10.0,74,0.00,,SKC,0.00,VWS V12.07,2013-06-07 16:56:00,
2013-06-07 12:04:00,69.5,59.7,29.95,NNW,336,2.0,9.0,71,0.00,,SKC,0.00,VWS V12.07,2013-06-07 17:04:00,
2013-06-07 12:11:00,69.8,58.8,29.95,NNE,32,2.0,10.0,68,0.00,,SKC,0.00,VWS V12.07,2013-06-07 17:11:00,
2013-06-07 12:17:00,69.9,59.3,29.95,NW,319,2.0,10.0,69,0.00,,SKC,0.00,VWS V12.07,2013-06-07 17:17:00,
2013-06-07 12:25:00,70.1,58.7,29.95,ENE,72,5.0,10.0,67,0.00,,SKC,0.00,VWS V12.07,2013-06-07 17:25:00,
2013-06-07 12:32:00,70.1,58.7,29.94,NW,319,3.0,11.0,67,0.00,,SKC,0.00,VWS V12.07,2013-06-07 17:32:00,
2013-06-07 12:39:00,70.8,59.7,29.95,NW,321,2.0,11.0,68,0.00,,SKC,0.00,VWS V12.07,2013-06-07 17:39:00,
2013-06-07 12:44:00,71.1,59.2,29.94,WNW,293,1.0,11.0,66,0.00,,SKC,0.00,VWS V12.07,2013-06-07 17:44:00,
2013-06-07 12:54:00,70.6,58.3,29.94,NNW,340,1.0,11.0,65,0.00,,SKC,0.00,VWS V12.07,2013-06-07 17:54:00,
2013-06-07 12:59:00,70.8,58.5,29.94,NW,318,3.0,11.0,65,0.00,,SKC,0.00,VWS V12.07,2013-06-07 17:59:00,
2013-06-07 13:09:00,71.3,58.9,29.94,NNE,33,6.0,11.0,65,0.00,,SKC,0.00,VWS V12.07,2013-06-07 18:09:00,
2013-06-07 13:14:00,71.3,58.9,29.93,NNE,20,4.0,11.0,65,0.00,,SKC,0.00,VWS V12.07,2013-06-07 18:14:00,
2013-06-07 13:22:00,72.0,60.5,29.93,NNE,20,4.0,11.0,67,0.00,,SKC,0.00,VWS V12.07,2013-06-07 18:22:00,
2013-06-07 13:34:00,71.4,58.2,29.93,ESE,123,2.0,7.0,63,0.00,,SKC,0.00,VWS V12.07,2013-06-07 18:34:00,
2013-06-07 13:42:00,71.7,58.0,29.93,North,11,2.0,7.0,62,0.00,,SKC,0.00,VWS V12.07,2013-06-07 18:42:00,
2013-06-07 13:49:00,71.6,58.3,29.93,WNW,288,2.0,9.0,63,0.00,,SKC,0.00,VWS V12.07,2013-06-07 18:49:00,
2013-06-07 13:54:00,70.8,57.6,29.93,NE,36,1.0,9.0,63,0.00,,SKC,0.00,VWS V12.07,2013-06-07 18:54:00,
2013-06-07 13:59:00,70.9,57.7,29.93,NNW,346,3.0,9.0,63,0.00,,SKC,0.00,VWS V12.07,2013-06-07 18:59:00,
2013-06-07 14:14:00,71.0,58.2,29.92,North,358,4.0,9.0,64,0.00,,SKC,0.00,VWS V12.07,2013-06-07 19:14:00,
2013-06-07 14:19:00,71.1,58.3,29.92,North,5,3.0,9.0,64,0.00,,SKC,0.00,VWS V12.07,2013-06-07 19:19:00,
2013-06-07 14:25:00,71.1,57.4,29.92,WNW,302,2.0,9.0,62,0.00,,SKC,0.00,VWS V12.07,2013-06-07 19:25:00,
2013-06-07 14:32:00,71.9,57.7,29.92,WNW,300,3.0,5.0,61,0.00,,SKC,0.00,VWS V12.07,2013-06-07 19:32:00,
2013-06-07 14:40:00,71.9,56.8,29.92,ENE,63,3.0,10.0,59,0.00,,SKC,0.00,VWS V12.07,2013-06-07 19:40:00,
2013-06-07 14:49:00,71.6,57.5,29.92,NE,37,7.0,10.0,61,0.00,,SKC,0.00,VWS V12.07,2013-06-07 19:49:00,
2013-06-07 14:55:00,71.1,57.0,29.92,NNW,328,3.0,10.0,61,0.00,,SKC,0.00,VWS V12.07,2013-06-07 19:55:00,
2013-06-07 15:04:00,71.9,57.7,29.92,North,1,1.0,8.0,61,0.00,,SKC,0.00,VWS V12.07,2013-06-07 20:04:00,
2013-06-07 15:10:00,72.7,58.0,29.92,NNE,27,3.0,10.0,60,0.00,,SKC,0.00,VWS V12.07,2013-06-07 20:10:00,
2013-06-07 15:19:00,72.9,57.8,29.91,North,8,2.0,11.0,59,0.00,,SKC,0.00,VWS V12.07,2013-06-07 20:19:00,
2013-06-07 15:26:00,73.0,57.8,29.91,NW,304,3.0,11.0,59,0.00,,SKC,0.00,VWS V12.07,2013-06-07 20:26:00,
2013-06-07 15:32:00,73.8,57.6,29.91,NNE,16,6.0,8.0,57,0.00,,SKC,0.00,VWS V12.07,2013-06-07 20:32:00,
2013-06-07 15:40:00,73.9,57.7,29.91,NNW,330,4.0,9.0,57,0.00,,SKC,0.00,VWS V12.07,2013-06-07 20:40:00,
2013-06-07 15:49:00,73.8,58.1,29.91,NNE,23,9.0,12.0,58,0.00,,SKC,0.00,VWS V12.07,2013-06-07 20:49:00,
2013-06-07 15:57:00,74.0,56.8,29.91,NNW,330,4.0,12.0,55,0.00,,SKC,0.00,VWS V12.07,2013-06-07 20:57:00,
2013-06-07 16:05:00,74.3,57.1,29.91,West,277,3.0,8.0,55,0.00,,SKC,0.00,VWS V12.07,2013-06-07 21:05:00,
2013-06-07 16:12:00,74.2,58.0,29.90,NW,315,2.0,9.0,57,0.00,,SKC,0.00,VWS V12.07,2013-06-07 21:12:00,
2013-06-07 16:20:00,74.2,56.5,29.91,NW,321,3.0,9.0,54,0.00,,SKC,0.00,VWS V12.07,2013-06-07 21:20:00,
2013-06-07 16:27:00,74.2,57.0,29.90,NE,43,6.0,9.0,55,0.00,,SKC,0.00,VWS V12.07,2013-06-07 21:27:00,
2013-06-07 16:39:00,73.8,57.1,29.90,WNW,295,5.0,10.0,56,0.00,,SKC,0.00,VWS V12.07,2013-06-07 21:39:00,
2013-06-07 16:50:00,74.7,57.0,29.90,WNW,296,3.0,10.0,54,0.00,,SKC,0.00,VWS V12.07,2013-06-07 21:50:00,
2013-06-07 16:59:00,74.4,55.7,29.90,NE,36,3.0,10.0,52,0.00,,SKC,0.00,VWS V12.07,2013-06-07 21:59:00,
2013-06-07 17:10:00,72.9,56.3,29.90,NNW,327,4.0,8.0,56,0.00,,SKC,0.00,VWS V12.07,2013-06-07 22:10:00,
2013-06-07 17:19:00,72.9,56.8,29.90,East,89,1.0,8.0,57,0.00,,SKC,0.00,VWS V12.07,2013-06-07 22:19:00,
2013-06-07 17:24:00,73.1,56.5,29.90,NNE,19,5.0,10.0,56,0.00,,SKC,0.00,VWS V12.07,2013-06-07 22:24:00,
2013-06-07 17:34:00,73.8,57.6,29.90,NW,323,3.0,7.0,57,0.00,,SKC,0.00,VWS V12.07,2013-06-07 22:34:00,
2013-06-07 17:49:00,73.4,56.8,29.90,NW,326,2.0,9.0,56,0.00,,SKC,0.00,VWS V12.07,2013-06-07 22:49:00,
2013-06-07 17:54:00,73.3,56.7,29.90,WNW,298,3.0,9.0,56,0.00,,SKC,0.00,VWS V12.07,2013-06-07 22:54:00,
2013-06-07 18:04:00,72.9,56.3,29.90,ENE,61,3.0,9.0,56,0.00,,SKC,0.00,VWS V12.07,2013-06-07 23:04:00,
2013-06-07 18:16:00,71.2,56.6,29.90,NNE,19,1.0,9.0,60,0.00,,SKC,0.00,VWS V12.07,2013-06-07 23:16:00,
2013-06-07 18:34:00,71.2,56.2,29.90,NW,323,3.0,3.0,59,0.00,,SKC,0.00,VWS V12.07,2013-06-07 23:34:00,
2013-06-07 18:44:00,72.0,56.9,29.91,NW,319,2.0,6.0,59,0.00,,SKC,0.00,VWS V12.07,2013-06-07 23:44:00,
2013-06-07 18:54:00,72.3,56.2,29.91,NNW,334,3.0,7.0,57,0.00,,SKC,0.00,VWS V12.07,2013-06-07 23:54:00,
2013-06-07 18:59:00,72.2,56.1,29.91,WNW,294,0.0,7.0,57,0.00,,SKC,0.00,VWS V12.07,2013-06-07 23:59:00,
2013-06-07 19:07:00,72.2,56.6,29.91,NE,52,1.0,4.0,58,0.00,,SKC,0.00,VWS V12.07,2013-06-08 00:07:00,
2013-06-07 19:14:00,71.9,56.3,29.91,East,96,3.0,6.0,58,0.00,,SKC,0.00,VWS V12.07,2013-06-08 00:14:00,
2013-06-07 19:22:00,71.4,55.9,29.91,NE,43,3.0,6.0,58,0.00,,SKC,0.00,VWS V12.07,2013-06-08 00:22:00,
2013-06-07 19:30:00,71.1,56.1,29.91,NE,51,0.0,6.0,59,0.00,,SKC,0.00,VWS V12.07,2013-06-08 00:30:00,
2013-06-07 19:39:00,70.8,55.8,29.91,North,9,0.0,4.0,59,0.00,,SKC,0.00,VWS V12.07,2013-06-08 00:39:00,
2013-06-07 19:44:00,70.6,56.1,29.91,NE,39,0.0,4.0,60,0.00,,SKC,0.00,VWS V12.07,2013-06-08 00:44:00,
2013-06-07 19:49:00,70.3,56.2,29.91,NE,46,1.0,4.0,61,0.00,,SKC,0.00,VWS V12.07,2013-06-08 00:49:00,
2013-06-07 19:57:00,69.9,55.8,29.91,NE,48,0.0,5.0,61,0.00,,SKC,0.00,VWS V12.07,2013-06-08 00:57:00,
2013-06-07 20:04:00,69.3,56.2,29.92,ENE,58,0.0,1.0,63,0.00,,SKC,0.00,VWS V12.07,2013-06-08 01:04:00,
2013-06-07 20:09:00,69.0,55.9,29.92,North,358,0.0,2.0,63,0.00,,SKC,0.00,VWS V12.07,2013-06-08 01:09:00,
2013-06-07 20:19:00,68.1,55.5,29.92,NE,41,0.0,3.0,64,0.00,,SKC,0.00,VWS V12.07,2013-06-08 01:19:00,
2013-06-07 20:25:00,67.6,55.8,29.92,NE,41,0.0,3.0,66,0.00,,SKC,0.00,VWS V12.07,2013-06-08 01:25:00,
2013-06-07 20:32:00,66.7,56.2,29.92,NE,41,0.0,0.0,69,0.00,,SKC,0.00,VWS V12.07,2013-06-08 01:32:00,
2013-06-07 20:39:00,65.5,56.2,29.92,NE,41,0.0,0.0,72,0.00,,SKC,0.00,VWS V12.07,2013-06-08 01:39:00,
2013-06-07 20:50:00,64.3,56.2,29.92,NE,41,0.0,0.0,75,0.00,,SKC,0.00,VWS V12.07,2013-06-08 01:50:00,
2013-06-07 21:09:00,62.7,56.8,29.92,NE,41,0.0,0.0,81,0.00,,SKC,0.00,VWS V12.07,2013-06-08 02:09:00,
2013-06-07 21:15:00,62.2,57.0,29.92,NE,41,0.0,0.0,83,0.00,,SKC,0.00,VWS V12.07,2013-06-08 02:15:00,
2013-06-07 21:24:00,61.5,56.3,29.92,NE,41,0.0,0.0,83,0.00,,SKC,0.00,VWS V12.07,2013-06-08 02:24:00,
2013-06-07 21:29:00,61.3,56.4,29.92,NE,41,0.0,0.0,84,0.00,,SKC,0.00,VWS V12.07,2013-06-08 02:29:00,
2013-06-07 21:34:00,60.9,55.7,29.92,NE,41,0.0,0.0,83,0.00,,SKC,0.00,VWS V12.07,2013-06-08 02:34:00,
2013-06-07 21:44:00,60.6,55.8,29.93,NE,41,0.0,0.0,84,0.00,,SKC,0.00,VWS V12.07,2013-06-08 02:44:00,
2013-06-07 21:50:00,60.3,55.8,29.93,NE,41,0.0,0.0,85,0.00,,SKC,0.00,VWS V12.07,2013-06-08 02:50:00,
2013-06-07 21:57:00,60.1,55.6,29.93,NE,41,0.0,0.0,85,0.00,,SKC,0.00,VWS V12.07,2013-06-08 02:57:00,
2013-06-07 22:04:00,59.9,55.1,29.93,NE,41,0.0,0.0,84,0.00,,SKC,0.00,VWS V12.07,2013-06-08 03:04:00,
2013-06-07 22:10:00,59.7,54.9,29.94,NE,41,0.0,0.0,84,0.00,,SKC,0.00,VWS V12.07,2013-06-08 03:10:00,
2013-06-07 22:17:00,59.4,55.2,29.94,NE,41,0.0,0.0,86,0.00,,SKC,0.00,VWS V12.07,2013-06-08 03:17:00,
2013-06-07 22:24:00,59.5,55.3,29.94,NE,41,0.0,0.0,86,0.00,,SKC,0.00,VWS V12.07,2013-06-08 03:24:00,
2013-06-07 22:34:00,59.5,55.0,29.95,NE,41,0.0,0.0,85,0.00,,SKC,0.00,VWS V12.07,2013-06-08 03:34:00,
2013-06-07 22:40:00,59.3,55.1,29.95,NE,41,0.0,0.0,86,0.00,,SKC,0.00,VWS V12.07,2013-06-08 03:40:00,
2013-06-07 22:47:00,59.1,54.9,29.95,NE,41,0.0,0.0,86,0.00,,SKC,0.00,VWS V12.07,2013-06-08 03:47:00,
2013-06-07 22:54:00,58.7,54.5,29.94,NE,41,0.0,0.0,86,0.00,,SKC,0.00,VWS V12.07,2013-06-08 03:54:00,
2013-06-07 23:00:00,58.7,54.5,29.94,NE,41,0.0,0.0,86,0.00,,SKC,0.00,VWS V12.07,2013-06-08 04:00:00,
2013-06-07 23:04:00,58.7,54.5,29.94,NE,41,0.0,0.0,86,0.00,,SKC,0.00,VWS V12.07,2013-06-08 04:04:00,
2013-06-07 23:07:00,58.6,54.4,29.94,NE,41,0.0,0.0,86,0.00,,SKC,0.00,VWS V12.07,2013-06-08 04:07:00,
2013-06-07 23:10:00,58.5,54.7,29.94,NE,41,0.0,0.0,87,0.00,,SKC,0.00,VWS V12.07,2013-06-08 04:10:00,
2013-06-07 23:17:00,58.5,54.7,29.94,NE,41,0.0,0.0,87,0.00,,SKC,0.00,VWS V12.07,2013-06-08 04:17:00,
2013-06-07 23:24:00,58.2,54.4,29.94,NE,41,0.0,0.0,87,0.00,,SKC,0.00,VWS V12.07,2013-06-08 04:24:00,
2013-06-07 23:30:00,57.9,54.7,29.94,NE,41,0.0,0.0,89,0.00,,SKC,0.00,VWS V12.07,2013-06-08 04:30:00,
2013-06-07 23:37:00,57.7,54.8,29.94,NE,41,0.0,0.0,90,0.00,,SKC,0.00,VWS V12.07,2013-06-08 04:37:00,
2013-06-07 23:45:00,57.2,54.3,29.94,NE,41,0.0,0.0,90,0.00,,SKC,0.00,VWS V12.07,2013-06-08 04:45:00,
2013-06-07 23:52:00,56.6,54.0,29.94,NE,41,0.0,0.0,91,0.00,,SKC,0.00,VWS V12.07,2013-06-08 04:52:00,
2013-06-07 23:59:00,56.2,54.2,29.94,NE,41,0.0,0.0,93,0.00,,SKC,0.00,VWS V12.07,2013-06-08 04:59:00,